• In Deutschland
  • Länderverzeichnis
  • Für 7 Tage
  • Wassertemperatur
  • Satellitenkarten
  • Wetterkarte
  • Widgets
  • user-avatar
    Anmelden

    Stündliche Wetter Mosbach

    Heute, 17 Juli, Dienstag

    Zeit Temperatur Niederschläge Wind Luftdruck Luftfeuchtigkeit
    00:00 +20°C° 0,2 mm 1 m/S 745 mmHg 77%
    01:00 +20°C° 0,2 mm 1 m/S 745 mmHg 78%
    02:00 +20°C° 0,1 mm 1 m/S 745 mmHg 79%
    03:00 +19°C° 0,1 mm 1 m/S 745 mmHg 80%
    04:00 +19°C° 0,1 mm 1 m/S 745 mmHg 81%
    05:00 +20°C° 0 mm 1 m/S 745 mmHg 79%
    06:00 +21°C° 0 mm 1 m/S 745 mmHg 77%
    07:00 +22°C° 0 mm 1 m/S 746 mmHg 75%
    08:00 +24°C° 0,3 mm 1 m/S 746 mmHg 70%
    09:00 +25°C° 0,3 mm 2 m/S 746 mmHg 65%
    10:00 +27°C° 0,3 mm 2 m/S 746 mmHg 59%
    11:00 +28°C° 0,2 mm 2 m/S 746 mmHg 53%
    12:00 +29°C° 0,2 mm 2 m/S 746 mmHg 47%
    13:00 +30°C° 0,2 mm 2 m/S 746 mmHg 40%
    14:00 +30°C° 0 mm 2 m/S 746 mmHg 40%
    15:00 +30°C° 0 mm 2 m/S 746 mmHg 41%
    16:00 +30°C° 0 mm 2 m/S 746 mmHg 41%
    17:00 +29°C° 0 mm 2 m/S 746 mmHg 45%
    18:00 +28°C° 0 mm 2 m/S 746 mmHg 50%
    19:00 +27°C° 0 mm 2 m/S 746 mmHg 54%
    20:00 +26°C° 0 mm 2 m/S 746 mmHg 57%
    21:00 +24°C° 0 mm 2 m/S 746 mmHg 60%
    22:00 +23°C° 0 mm 2 m/S 747 mmHg 64%
    23:00 +21°C° 0,2 mm 2 m/S 747 mmHg 68%

    Morgen, 18 Juli, Mittwoch

    Zeit Temperatur Niederschläge Wind Luftdruck Luftfeuchtigkeit
    00:00 +21°C° 0,2 mm 2 m/S 747 mmHg 72%
    01:00 +20°C° 0,2 mm 2 m/S 747 mmHg 76%
    02:00 +19°C° 0 mm 2 m/S 747 mmHg 79%
    03:00 +19°C° 0 mm 2 m/S 747 mmHg 82%
    04:00 +18°C° 0 mm 2 m/S 747 mmHg 85%
    05:00 +19°C° 0 mm 2 m/S 748 mmHg 83%
    06:00 +20°C° 0 mm 2 m/S 748 mmHg 81%
    07:00 +20°C° 0 mm 2 m/S 748 mmHg 79%
    08:00 +23°C° 0 mm 2 m/S 748 mmHg 73%
    09:00 +24°C° 0 mm 2 m/S 748 mmHg 66%
    10:00 +26°C° 0 mm 2 m/S 748 mmHg 60%
    11:00 +27°C° 0 mm 2 m/S 748 mmHg 56%
    12:00 +28°C° 0 mm 2 m/S 748 mmHg 52%
    13:00 +29°C° 0 mm 2 m/S 748 mmHg 48%
    14:00 +29°C° 0 mm 2 m/S 748 mmHg 48%
    15:00 +29°C° 0 mm 2 m/S 747 mmHg 47%
    16:00 +29°C° 0 mm 2 m/S 747 mmHg 47%
    17:00 +28°C° 0 mm 2 m/S 747 mmHg 52%
    18:00 +27°C° 0 mm 2 m/S 747 mmHg 56%
    19:00 +26°C° 0 mm 2 m/S 747 mmHg 60%
    20:00 +25°C° 0 mm 1 m/S 747 mmHg 64%
    21:00 +23°C° 0 mm 1 m/S 748 mmHg 68%
    22:00 +22°C° 0 mm 1 m/S 748 mmHg 72%
    23:00 +21°C° 0 mm 1 m/S 748 mmHg 75%

    übermorgen, 19 Juli, Donnerstag

    Zeit Temperatur Niederschläge Wind Luftdruck Luftfeuchtigkeit
    00:00 +21°C° 0 mm 1 m/S 748 mmHg 78%
    01:00 +20°C° 0 mm 1 m/S 748 mmHg 81%
    02:00 +19°C° 0 mm 1 m/S 748 mmHg 83%
    03:00 +19°C° 0 mm 1 m/S 748 mmHg 84%
    04:00 +19°C° 0 mm 1 m/S 748 mmHg 86%
    05:00 +20°C° 0 mm 1 m/S 748 mmHg 82%
    06:00 +21°C° 0 mm 1 m/S 748 mmHg 79%
    07:00 +22°C° 0 mm 1 m/S 748 mmHg 75%
    08:00 +23°C° 0 mm 1 m/S 748 mmHg 70%
    09:00 +25°C° 0 mm 2 m/S 748 mmHg 64%
    10:00 +27°C° 0 mm 2 m/S 748 mmHg 58%
    11:00 +28°C° 0 mm 2 m/S 748 mmHg 53%
    12:00 +29°C° 0 mm 2 m/S 748 mmHg 48%
    13:00 +30°C° 0 mm 2 m/S 748 mmHg 43%
    14:00 +30°C° 0 mm 2 m/S 747 mmHg 43%
    15:00 +30°C° 0 mm 2 m/S 747 mmHg 43%
    16:00 +30°C° 0 mm 2 m/S 747 mmHg 43%
    17:00 +29°C° 0 mm 2 m/S 747 mmHg 48%
    18:00 +28°C° 0 mm 2 m/S 747 mmHg 53%
    19:00 +27°C° 0 mm 2 m/S 747 mmHg 58%
    20:00 +25°C° 0 mm 2 m/S 747 mmHg 60%
    21:00 +24°C° 0 mm 2 m/S 747 mmHg 62%
    22:00 +23°C° 0 mm 1 m/S 747 mmHg 64%
    23:00 +21°C° 0 mm 2 m/S 747 mmHg 66%

    20 Juli, Freitag

    Zeit Temperatur Niederschläge Wind Luftdruck Luftfeuchtigkeit
    00:00 +20°C° 0 mm 2 m/S 747 mmHg 68%
    01:00 +20°C° 0 mm 2 m/S 747 mmHg 71%
    02:00 +19°C° 0 mm 2 m/S 746 mmHg 72%
    03:00 +19°C° 0 mm 2 m/S 746 mmHg 74%
    04:00 +19°C° 0 mm 1 m/S 746 mmHg 76%
    05:00 +20°C° 0 mm 1 m/S 746 mmHg 74%
    06:00 +21°C° 0 mm 1 m/S 746 mmHg 72%
    07:00 +22°C° 0 mm 1 m/S 746 mmHg 70%
    08:00 +24°C° 0 mm 2 m/S 746 mmHg 65%
    09:00 +26°C° 0 mm 2 m/S 746 mmHg 59%
    10:00 +28°C° 0 mm 2 m/S 746 mmHg 54%
    11:00 +29°C° 0 mm 2 m/S 745 mmHg 51%
    12:00 +30°C° 0 mm 2 m/S 745 mmHg 48%
    13:00 +31°C° 0 mm 2 m/S 745 mmHg 45%
    14:00 +30°C° 0,3 mm 2 m/S 745 mmHg 51%
    15:00 +29°C° 0,3 mm 2 m/S 745 mmHg 57%
    16:00 +28°C° 0,3 mm 1 m/S 744 mmHg 63%
    17:00 +26°C° 2,6 mm 2 m/S 744 mmHg 70%
    18:00 +25°C° 2,6 mm 2 m/S 744 mmHg 77%
    19:00 +23°C° 2,6 mm 2 m/S 744 mmHg 83%
    20:00 +23°C° 1 mm 1 m/S 744 mmHg 84%
    21:00 +22°C° 1 mm 1 m/S 744 mmHg 85%
    22:00 +21°C° 1 mm 1 m/S 744 mmHg 86%
    23:00 +21°C° 0 mm 1 m/S 744 mmHg 88%

    21 Juli, Samstag

    Zeit Temperatur Niederschläge Wind Luftdruck Luftfeuchtigkeit
    00:00 +21°C° 0 mm 1 m/S 744 mmHg 89%
    01:00 +20°C° 0 mm 1 m/S 743 mmHg 91%
    02:00 +20°C° 0 mm 1 m/S 743 mmHg 91%
    03:00 +20°C° 0 mm 1 m/S 743 mmHg 92%
    04:00 +19°C° 0 mm 1 m/S 743 mmHg 93%
    05:00 +20°C° 0 mm 1 m/S 743 mmHg 91%
    06:00 +21°C° 0 mm 1 m/S 744 mmHg 90%
    07:00 +21°C° 0 mm 1 m/S 744 mmHg 88%
    08:00 +21°C° 0,2 mm 2 m/S 744 mmHg 84%
    09:00 +23°C° 0,2 mm 2 m/S 744 mmHg 80%
    10:00 +24°C° 0,2 mm 2 m/S 744 mmHg 77%
    11:00 +24°C° 0,8 mm 3 m/S 744 mmHg 75%
    12:00 +25°C° 0,8 mm 3 m/S 744 mmHg 73%
    13:00 +25°C° 0,8 mm 3 m/S 744 mmHg 71%
    14:00 +25°C° 0,6 mm 3 m/S 744 mmHg 69%
    15:00 +26°C° 0,6 mm 3 m/S 744 mmHg 68%
    16:00 +26°C° 0,6 mm 3 m/S 744 mmHg 67%
    17:00 +25°C° 0,3 mm 3 m/S 744 mmHg 69%
    18:00 +25°C° 0,3 mm 2 m/S 745 mmHg 71%
    19:00 +24°C° 0,3 mm 2 m/S 745 mmHg 73%
    20:00 +23°C° 0 mm 2 m/S 745 mmHg 76%
    21:00 +20°C° 0 mm 2 m/S 745 mmHg 79%
    22:00 +20°C° 0 mm 1 m/S 746 mmHg 82%
    23:00 +20°C° 0 mm 1 m/S 746 mmHg 83%

    22 Juli, Sonntag

    Zeit Temperatur Niederschläge Wind Luftdruck Luftfeuchtigkeit
    00:00 +19°C° 0 mm 1 m/S 746 mmHg 85%
    01:00 +17°C° 0 mm 0 m/S 746 mmHg 86%
    02:00 +18°C° 0 mm 1 m/S 747 mmHg 86%
    03:00 +18°C° 0 mm 1 m/S 747 mmHg 87%
    04:00 +18°C° 0 mm 1 m/S 747 mmHg 87%
    05:00 +19°C° 0,1 mm 1 m/S 747 mmHg 85%
    06:00 +20°C° 0,1 mm 1 m/S 747 mmHg 83%
    07:00 +20°C° 0,1 mm 1 m/S 748 mmHg 81%
    08:00 +21°C° 0,2 mm 2 m/S 748 mmHg 75%
    09:00 +23°C° 0,2 mm 2 m/S 748 mmHg 69%
    10:00 +24°C° 0,2 mm 2 m/S 748 mmHg 63%
    11:00 +25°C° 0,1 mm 3 m/S 748 mmHg 58%
    12:00 +26°C° 0,1 mm 3 m/S 747 mmHg 53%
    13:00 +27°C° 0,1 mm 3 m/S 747 mmHg 48%
    14:00 +27°C° 0 mm 3 m/S 747 mmHg 46%
    15:00 +27°C° 0 mm 4 m/S 747 mmHg 45%
    16:00 +27°C° 0 mm 4 m/S 747 mmHg 44%
    17:00 +26°C° 0 mm 3 m/S 747 mmHg 50%
    18:00 +25°C° 0 mm 2 m/S 747 mmHg 55%
    19:00 +24°C° 0 mm 2 m/S 747 mmHg 61%
    20:00 +23°C° 0 mm 2 m/S 748 mmHg 65%
    21:00 +21°C° 0 mm 1 m/S 748 mmHg 69%
    22:00 +20°C° 0 mm 1 m/S 748 mmHg 73%
    23:00 +20°C° 0 mm 1 m/S 749 mmHg 76%
    Mehr zeigen